STARLINK-36266

Last updated on Fri Mar 27 2026 00:02:06 GMT+0000 (Coordinated Universal Time)

1 67984U 26038Z 26085.50002314 -.00721225 00000+0 -23853-1 0 9991 2 67984 97.2849 96.4518 0001369 66.8121 187.6205 15.33906053 5875
UTC large
Height (km)
Speed (km/s)
/
Latitude / Longitude
Inclination (degrees)
Orbital Period (minutes)
Azimuth
Elevation
Range (km)
Doppler Factor

Next 0 passes for location: London (51.5072 / 0.1276)

Sorry there are no passes over London.